Weather History for KSBS - July, 2013

Change the Weather History Date:

Thursday, July 18, 2013

  Actual Average Record
Temperature  
Mean Temperature 71 °F -  
Max Temperature 86 °F 82 °F 94 °F (1934)
Min Temperature 56 °F 43 °F 31 °F (1915)
Cooling Degree Days 6    
Growing Degree Days 21 (Base 50)    
Moisture  
Dew Point 51 °F    
Average Humidity 62    
Maximum Humidity 92    
Minimum Humidity 19    
Precipitation  
Precipitation 0.00 in - - ()
Sea Level Pressure  
Sea Level Pressure 30.33 in    
Wind  
Wind Speed 3 mph (West)    
Max Wind Speed 17 mph    
Max Gust Speed 22 mph    
Visibility 10 miles    
Events      
Averages and records for this station are not official NWS values.
T = Trace of Precipitation, MM = Missing Value Source: NWS Daily Summary

Daily Weather History Graph

Daily Weather History Graph

Search for Another Location

Airport or City:

Trip Planner

Search our weather history database for the weather conditions in past years. The results will help you decide how hot, cold, wet, or windy it might be!

Date:

Astronomy

Jul. 18, 2013 Rise Set
Actual Time 5:52 AM MDT 8:34 PM MDT
Civil Twilight 5:20 AM MDT 9:06 PM MDT
Nautical Twilight 4:40 AM MDT 9:46 PM MDT
Astronomical Twilight 3:54 AM MDT 10:31 PM MDT
Moon 4:34 PM MDT (7/18) 1:45 AM MDT (7/18)
Length of Visible Light 15h 45m
Length of Day
14h 42m
Waxing Gibbous, 78% of the Moon is Illuminated
Jul 18
Waxing Gibbous
Jul 22
Full
Jul 29
Last Quarter
Aug 6
New
Aug 14
First Quarter

Hourly Weather History & Observations

Time (MDT) Temp. Dew Point Humidity Pressure Visibility Wind Dir Wind Speed Gust Speed Precip Events Conditions
12:15 AM 61.5 °F 53.6 °F 75% 30.36 in 10.0 mi ESE 4.6 mph - N/A   Clear
12:35 AM 63.0 °F 51.4 °F 66% 30.35 in 10.0 mi SE 5.8 mph - N/A   Clear
12:55 AM 61.9 °F 52.0 °F 70% 30.35 in 10.0 mi Calm Calm - N/A   Scattered Clouds
1:15 AM 61.0 °F 51.1 °F 70% 30.34 in 10.0 mi Calm Calm - N/A   Scattered Clouds
1:35 AM 60.6 °F 51.1 °F 71% 30.35 in 10.0 mi Calm Calm - N/A   Mostly Cloudy
1:55 AM 59.2 °F 51.8 °F 77% 30.35 in 10.0 mi WSW 3.5 mph - N/A   Scattered Clouds
2:15 AM 57.6 °F 54.5 °F 90% 30.35 in 10.0 mi Calm Calm - N/A   Clear
2:35 AM 58.6 °F 54.1 °F 85% 30.35 in 10.0 mi Calm Calm - N/A   Clear
2:55 AM 58.1 °F 52.7 °F 82% 30.36 in 10.0 mi Calm Calm - N/A   Clear
3:15 AM 57.6 °F 53.1 °F 85% 30.35 in 10.0 mi Calm Calm - N/A   Scattered Clouds
3:35 AM 57.4 °F 53.1 °F 85% 30.35 in 10.0 mi ESE 3.5 mph - N/A   Scattered Clouds
3:55 AM 56.5 °F 52.7 °F 87% 30.35 in 10.0 mi Calm Calm - N/A   Mostly Cloudy
4:15 AM 56.7 °F 52.7 °F 87% 30.35 in 10.0 mi Calm Calm - N/A   Mostly Cloudy
4:35 AM 56.3 °F 52.7 °F 88% 30.36 in 10.0 mi Calm Calm - N/A   Scattered Clouds
4:55 AM 56.7 °F 53.2 °F 88% 30.36 in 10.0 mi Calm Calm - N/A   Mostly Cloudy
5:15 AM 57.0 °F 52.3 °F 84% 30.36 in 10.0 mi Calm Calm - N/A   Mostly Cloudy
5:35 AM 56.5 °F 52.3 °F 86% 30.36 in 10.0 mi Calm Calm - N/A   Scattered Clouds
5:55 AM 56.3 °F 51.8 °F 85% 30.37 in 10.0 mi Calm Calm - N/A   Clear
6:15 AM 57.2 °F 49.5 °F 75% 30.37 in 10.0 mi Calm Calm - N/A   Clear
6:35 AM 57.2 °F 48.9 °F 74% 30.37 in 10.0 mi Calm Calm - N/A   Clear
6:55 AM 56.7 °F 50.5 °F 80% 30.38 in 10.0 mi West 4.6 mph - N/A   Clear
7:15 AM 56.5 °F 53.1 °F 88% 30.38 in 10.0 mi SSE 3.5 mph - N/A   Scattered Clouds
7:35 AM 58.5 °F 50.9 °F 76% 30.38 in 10.0 mi Calm Calm - N/A   Mostly Cloudy
7:55 AM 61.7 °F 50.4 °F 66% 30.38 in 10.0 mi ENE 5.8 mph - N/A   Scattered Clouds
8:15 AM 63.3 °F 50.7 °F 63% 30.39 in 10.0 mi Calm Calm - N/A   Clear
8:35 AM 65.5 °F 50.9 °F 59% 30.38 in 10.0 mi Calm Calm - N/A   Clear
8:55 AM 66.7 °F 50.2 °F 55% 30.39 in 10.0 mi Calm Calm - N/A   Clear
9:15 AM 67.3 °F 49.8 °F 53% 30.38 in 10.0 mi Calm Calm - N/A   Clear
9:35 AM 68.9 °F 50.5 °F 52% 30.38 in 10.0 mi Calm Calm - N/A   Clear
9:55 AM 70.2 °F 51.8 °F 52% 30.38 in 10.0 mi WNW 4.6 mph - N/A   Scattered Clouds
10:15 AM 71.8 °F 52.5 °F 51% 30.37 in 10.0 mi Calm Calm - N/A   Mostly Cloudy
10:35 AM 73.4 °F 52.2 °F 47% 30.37 in 10.0 mi WNW 5.8 mph - N/A   Scattered Clouds
10:55 AM 72.7 °F 50.9 °F 46% 30.37 in 10.0 mi Calm Calm - N/A   Clear
11:15 AM 74.3 °F 46.8 °F 37% 30.37 in 10.0 mi Calm Calm - N/A   Mostly Cloudy
11:35 AM 74.3 °F 47.7 °F 39% 30.36 in 10.0 mi SSW 3.5 mph - N/A   Mostly Cloudy
11:55 AM 74.7 °F 47.8 °F 39% 30.35 in 10.0 mi SSW 4.6 mph - N/A   Mostly Cloudy
12:15 PM 76.1 °F 43.5 °F 31% 30.34 in 10.0 mi SSE 4.6 mph - N/A   Scattered Clouds
12:35 PM 77.4 °F 43.7 °F 30% 30.34 in 10.0 mi WSW 3.5 mph - N/A   Clear
12:55 PM 78.8 °F 45.9 °F 31% 30.32 in 10.0 mi South 6.9 mph - N/A   Clear
1:15 PM 79.9 °F 46.4 °F 31% 30.31 in 10.0 mi SW 4.6 mph - N/A   Clear
1:35 PM 80.8 °F 47.1 °F 31% 30.30 in 10.0 mi South 5.8 mph - N/A   Clear
1:55 PM 82.8 °F 46.2 °F 28% 30.29 in 10.0 mi WSW 8.1 mph - N/A   Clear
2:15 PM 83.8 °F 46.4 °F 27% 30.29 in 10.0 mi West 5.8 mph - N/A   Clear
2:35 PM 84.4 °F 46.2 °F 26% 30.28 in 10.0 mi SSW 4.6 mph - N/A   Clear
2:55 PM 84.2 °F 43.9 °F 24% 30.26 in 10.0 mi Calm Calm - N/A   Clear
3:15 PM 85.3 °F 45.7 °F 25% 30.25 in 10.0 mi WNW 12.7 mph - N/A   Scattered Clouds
3:35 PM 81.1 °F 43.3 °F 26% 30.26 in 10.0 mi WNW 8.1 mph - N/A   Scattered Clouds
3:55 PM 83.1 °F 43.2 °F 24% 30.25 in 10.0 mi NNW 3.5 mph - N/A   Scattered Clouds
4:15 PM 86.0 °F 39.4 °F 19% 30.25 in 10.0 mi WNW 4.6 mph - N/A   Scattered Clouds
4:35 PM 80.4 °F 44.8 °F 28% 30.24 in 10.0 mi WNW 12.7 mph - N/A   Scattered Clouds
4:55 PM 81.1 °F 45.3 °F 28% 30.24 in 10.0 mi West 3.5 mph - N/A   Mostly Cloudy
5:15 PM 81.7 °F 40.1 °F 23% 30.23 in 10.0 mi North 5.8 mph - N/A   Overcast
5:35 PM 80.1 °F 40.5 °F 24% 30.25 in 10.0 mi ENE 5.8 mph 17.3 mph N/A   Overcast
5:55 PM 74.5 °F 47.5 °F 38% 30.27 in 10.0 mi NW 15.0 mph 18.4 mph N/A   Overcast
6:15 PM 68.7 °F 50.2 °F 52% 30.28 in 10.0 mi NW 17.3 mph - N/A   Overcast
6:35 PM 67.6 °F 50.2 °F 54% 30.32 in 10.0 mi South 5.8 mph - N/A   Overcast
6:55 PM 63.7 °F 54.3 °F 72% 30.32 in 7.0 mi East 12.7 mph 21.9 mph N/A   Overcast
7:15 PM 61.2 °F 54.3 °F 78% 30.32 in 10.0 mi ESE 17.3 mph - N/A   Overcast
7:35 PM 60.1 °F 57.2 °F 90% 30.32 in 7.0 mi ESE 8.1 mph - N/A   Overcast
7:55 PM 61.0 °F 56.8 °F 86% 30.34 in 10.0 mi Calm Calm - N/A   Overcast
8:15 PM 61.2 °F 58.1 °F 90% 30.32 in 10.0 mi East 11.5 mph - N/A   Overcast
8:35 PM 60.6 °F 56.8 °F 87% 30.32 in 10.0 mi NNE 5.8 mph - N/A   Overcast
8:55 PM 61.0 °F 56.5 °F 85% 30.32 in 10.0 mi North 10.4 mph - N/A   Scattered Clouds
9:15 PM 60.4 °F 56.1 °F 86% 30.33 in 10.0 mi ENE 9.2 mph - N/A   Clear
9:35 PM 60.1 °F 55.0 °F 83% 30.33 in 10.0 mi ENE 4.6 mph - N/A   Clear
9:55 PM 60.3 °F 53.8 °F 79% 30.33 in 10.0 mi NE 4.6 mph - N/A   Clear
10:15 PM 59.4 °F 55.9 °F 88% 30.34 in 10.0 mi NNW 3.5 mph - N/A   Clear
10:35 PM 58.5 °F 55.6 °F 90% 30.34 in 10.0 mi Calm Calm - N/A   Clear
10:55 PM 58.3 °F 55.9 °F 92% 30.34 in 10.0 mi Calm Calm - N/A   Clear
11:15 PM 57.9 °F 55.4 °F 91% 30.34 in 10.0 mi NNW 3.5 mph - N/A   Clear
11:35 PM 57.7 °F 54.9 °F 90% 30.34 in 10.0 mi Calm Calm - N/A   Clear
11:55 PM 57.2 °F 54.7 °F 91% 30.34 in 10.0 mi Calm Calm - N/A   Clear